Regional Weather Roundup
Issued by NWS

Home | Current Version | Previous Version | Graphics & Text | Print | Product List | Glossary On
Versions: 1 2 3 4 5 6 7 8 9 10 11 12 13 14 15 16 17 18 19 20 21 22 23 24 25 26 27 28 29 30 31 32 33 34 35 36 37 38 39 40 41 42 43 44 45 46 47 48 49 50
000
ASUS43 KDTX 301201
RWRMI
MICHIGAN HOURLY REGIONAL WEATHER ROUNDUP
NATIONAL WEATHER SERVICE DETROIT/PONTIAC MI
700 AM EST FRI JAN 30 2015

NOTE: "FAIR" INDICATES FEW OR NO CLOUDS BELOW 12,000 FEET WITH NO
SIGNIFICANT WEATHER AND/OR OBSTRUCTION TO VISIBILITY.

MIZ047>049-052>055-059>063-066>070-074>076-081>083-301300-
SOUTHEAST LOWER MICHIGAN

CITY           SKY/WX    TMP DP  RH WIND       PRES   REMARKS
ADRIAN         FAIR      19   8  62 N13G25    30.33R WCI   6
6HR MIN TEMP:  19; 6HR MAX TEMP:  28;

ALMA           CLOUDY    17   7  67 N10G18    30.37R WCI   4
ANN ARBOR      MOCLDY    17   7  64 NW21G26   30.31R WCI   0
BAD AXE        CLOUDY    11   6  79 N24G30    30.32R HAZE    WCI  -9
6HR MIN TEMP:  11; 6HR MAX TEMP:  20;

CARO           PTCLDY    10   2  70 N15G21    30.35R WCI  -6
DETROIT CITY   MOCLDY    18   6  59 N22G31    30.31R WCI   1
6HR MIN TEMP:  18; 6HR MAX TEMP:  29; 6HR PCP: TRACE;

DETROIT        CLOUDY    18  11  74 NW16      30.30R WCI   3
FLINT          FLURRIES  16   7  67 NW14      30.34R WCI   2
6HR MIN TEMP:  16; 6HR MAX TEMP:  25; 6HR PCP: TRACE;

GROSSE ILE     FLURRIES  19  12  73 NW15      30.29R WCI   5
HILLSDALE      FLURRIES  20  12  71 N13G25    30.30R WCI   7
6HR MIN TEMP:  20; 6HR MAX TEMP:  26;

HOWELL         CLOUDY    15   6  67 NW16G23   30.32R WCI   0

CITY           SKY/WX    TMP DP  RH WIND       PRES   REMARKS
JACKSON        CLOUDY    18   8  65 N10       30.32R WCI   6
6HR MIN TEMP:  18; 6HR MAX TEMP:  24; 6HR PCP: TRACE;

LAMBERTVILLE   CLEAR     21  12  68 N10G17    30.32R WCI  10
LANSING        FLURRIES  18   8  65 N16G22    30.36R WCI   3
6HR MIN TEMP:  18; 6HR MAX TEMP:  22; 6HR PCP: TRACE;

LAPEER         LGT SNOW  13   7  77 N15G23    30.32R WCI  -3
MASON          CLOUDY    17   8  67 N16G23    30.34R WCI   2
MONROE         PTCLDY    18   9  68 NW17G25   30.30R WCI   2
MT. CLEMENS    CLOUDY    16   7  67 NW18      30.28R WCI  -1
PONTIAC        LGT SNOW  14   8  77 N9        30.28R WCI   2
6HR MIN TEMP:  14; 6HR MAX TEMP:  22; 6HR PCP: TRACE;

PORT HOPE        N/A     15   9  76 NW13G31   30.30R WCI   1
6HR MIN TEMP:  15; 6HR MAX TEMP:  21;

PORT HURON     CLOUDY    14   7  73 NW14G24   30.29R WCI  -1
TRI CITIES     PTCLDY    14   3  61 N17       30.37R WCI  -3
6HR MIN TEMP:  14; 6HR MAX TEMP:  22;

SAGINAW HB     PTCLDY    14   5  67 N13       30.37R WCI   0
$$
MIZ043>046-050>051-056>058-064>065-071>073-077>080-301300-
SOUTHWEST LOWER MICHIGAN

CITY           SKY/WX    TMP DP  RH WIND       PRES   REMARKS
BATTLE CREEK   CLOUDY    21  10  62 N9        30.35R WCI  11
6HR MIN TEMP:  21; 6HR MAX TEMP:  24; 6HR PCP: TRACE;

BENTON HARBOR  FLURRIES  23  14  68 N12G24    30.41R WCI  12
6HR MIN TEMP:  23; 6HR MAX TEMP:  27; 6HR PCP:  0.01;

BIG RAPIDS     FLURRIES  17  12  79 N9        30.36R WCI   6
6HR MIN TEMP:  17; 6HR MAX TEMP:  21;

COLDWATER      CLOUDY    20  12  70 NW14G20   30.34R WCI   7
6HR MIN TEMP:  20; 6HR MAX TEMP:  27;

FREMONT        FLURRIES  19   9  64 N12       30.39R WCI   6
HOLLAND        FLURRIES  21  11  65 NW9       30.42R WCI  11
6HR MIN TEMP:  21; 6HR MAX TEMP:  25; 6HR PCP: TRACE;

GRAND RAPIDS   CLOUDY    20   7  57 N20G25    30.38R WCI   4
6HR MIN TEMP:  20; 6HR MAX TEMP:  23; 6HR PCP: TRACE;

IONIA          CLOUDY    20   9  63 N15G22    30.35R WCI   6
KALAMAZOO      CLOUDY    21   9  59 N15       30.37R WCI   8
6HR MIN TEMP:  20; 6HR MAX TEMP:  25;

LUDINGTON      CLOUDY    21  11  65 N15G22    30.42R WCI   7
6HR MIN TEMP:  21; 6HR MAX TEMP:  23;

MARSHALL       CLOUDY    19   7  58 NW9       30.33R WCI   9
MOUNT PLEASANT CLOUDY    15   6  65 NW8       30.37R WCI   5
6HR MIN TEMP:  15; 6HR MAX TEMP:  22;

MUSKEGON       FLURRIES  21  10  62 N18       30.42R WCI   6
6HR MIN TEMP:  21; 6HR MAX TEMP:  24; 6HR PCP: TRACE;

SOUTH HAVEN    CLOUDY    24  13  63 N13G22    30.40R WCI  13
$$
MIZ016>042-301300-
NORTHERN LOWER MICHIGAN

CITY           SKY/WX    TMP DP  RH WIND       PRES   REMARKS
ALPENA         LGT SNOW   7   1  76 N16G26    30.38R WCI -11
6HR MIN TEMP:   6; 6HR MAX TEMP:  13; 6HR PCP:  0.02;

BEAVER ISLAND  CLOUDY    11   5  74 CALM      30.42R
6HR MIN TEMP:  11; 6HR MAX TEMP:  14;

BELLAIRE       CLOUDY    13   6  72 N5        30.42R WCI   5
6HR MIN TEMP:  13; 6HR MAX TEMP:  17;

CADILLAC       CLOUDY    13   7  76 N7        30.32R WCI   3
CHARLEVOIX     MOCLDY    10   5  77 NE10      30.44R WCI  -3
6HR MIN TEMP:  10; 6HR MAX TEMP:  15;

FRANKFORT      CLOUDY    18  10  69 N10G18    30.42R WCI   7
GAYLORD        CLOUDY     5   0  79 VRB5      30.33R WCI  -4
6HR MIN TEMP:   5; 6HR MAX TEMP:  11; 6HR PCP: TRACE;

GRAYLING       CLOUDY    10   2  72 N9G16     30.35R WCI  -4
6HR MIN TEMP:  10; 6HR MAX TEMP:  15;

HARBOR SPRINGS CLOUDY     7   0  74 CALM      30.41R
HOUGHTON LAKE  CLOUDY    11   2  67 N15G28    30.34R WCI  -5
6HR MIN TEMP:  10; 6HR MAX TEMP:  16; 6HR PCP: TRACE;

MANISTEE       CLOUDY    19   7  58 N8G23     30.42R WCI   9
OSCODA         CLOUDY    10   2  72 NW10G18   30.35R WCI  -4
PELLSTON       CLOUDY     5  -1  76 N9        30.42R WCI  -9
6HR MIN TEMP:   5; 6HR MAX TEMP:  12; 6HR PCP: TRACE;

ROGERS CITY    CLOUDY     7   3  84 NW14G21   30.40R WCI -10
TRAVERSE CITY  FLURRIES  18   9  68 N13G21    30.39R WCI   5
6HR MIN TEMP:  17; 6HR MAX TEMP:  20; 6HR PCP: TRACE;

$$
MIZ007>008-015-301300-
EASTERN UPPER MICHIGAN

CITY           SKY/WX    TMP DP  RH WIND       PRES   REMARKS
KINROSS        CLOUDY    -2  -8  78 NW6       30.40R WCI -14
6HR MIN TEMP:  -2; 6HR MAX TEMP:   3;

MACKINAC ISLAN CLOUDY     3  -4  72 N15       30.41R WCI -16
6HR MIN TEMP:   3; 6HR MAX TEMP:  11;

NEWBERRY       CLOUDY     9   3  78 N8        30.39R WCI  -4
6HR MIN TEMP:   8; 6HR MAX TEMP:  10;

S. S. MARIE    MOCLDY    -2 -12  62 NE10      30.41R WCI -19
6HR MIN TEMP:  -3; 6HR MAX TEMP:   3;

MUNISING         N/A     16   6  65 N14       30.42R WCI   2
6HR MIN TEMP:  15; 6HR MAX TEMP:  17; 6HR PCP:  0.02;

$$
MIZ004>006-011>014-085-301300-
CENTRAL UPPER MICHIGAN

CITY           SKY/WX    TMP DP  RH WIND       PRES   REMARKS
MANISTIQUE     FLURRIES  13   9  85 N7        30.41R WCI   3
6HR MIN TEMP:  13; 6HR MAX TEMP:  15;

ESCANABA       CLOUDY    12   1  62 NW7       30.46R WCI   2
6HR MIN TEMP:  12; 6HR MAX TEMP:  16;

MENOMINEE      CLOUDY    12   1  62 N5        30.47R WCI   4
6HR MIN TEMP:  12; 6HR MAX TEMP:  18;

SAWYER-GWINN   FLURRIES   9   3  78 NW10      30.40R WCI  -6
$$
MIZ001>003-009>011-084-301300-
WESTERN UPPER MICHIGAN

CITY           SKY/WX    TMP DP  RH WIND       PRES   REMARKS
IRON MOUNTAIN  CLOUDY    10   1  67 NW7       30.42R WCI  -1
6HR MIN TEMP:  10; 6HR MAX TEMP:  14; 6HR PCP: TRACE;

HOUGHTON       LGT SNOW   8   2  76 NW8       30.42S WCI  -4
6HR MIN TEMP:   8; 6HR MAX TEMP:  10; 6HR PCP: TRACE;

COPPER HARBOR    N/A     12   4  70 N15G23    30.46R WCI  -4
6HR MIN TEMP:  12; 6HR MAX TEMP:  14;

IRONWOOD       CLOUDY    10   7  85 W7        30.41S WCI   0
6HR MIN TEMP:  10; 6HR MAX TEMP:  14;

$$

ABBREVIATIONS USED IN REMARKS
   TC - TEMPERATURE IN CELSIUS
  WCI - WIND CHILL INDEX
   HX - HEAT INDEX
  VSB - VISIBILITY




USA.gov is the U.S. government's official web portal to all federal, state and local government web resources and services.